Land O' Lakes, WI

7:33 AM CST on February 13, 2016 (GMT -0600)
Kings Land O'Lakes

Weather History for KLNL - September, 2013

Change the Weather History Date:

Thursday, September 5, 2013

  Actual Average (KEGV) Record (KEGV)
Temperature  
Mean Temperature 53 °F -  
Max Temperature 71 °F 71 °F 89 °F (1998)
Min Temperature 35 °F 47 °F 35 °F (2000)
Degree Days  
Heating Degree Days 12    
Growing Degree Days 3 (Base 50)    
Moisture  
Dew Point 44 °F    
Average Humidity 75    
Maximum Humidity 100    
Minimum Humidity 38    
Precipitation  
Precipitation 0.00 in - - ()
Sea Level Pressure  
Sea Level Pressure 30.26 in    
Wind  
Wind Speed 1 mph (SW)    
Max Wind Speed 7 mph    
Max Gust Speed -    
Visibility 9 miles    
Events Fog    
Averages and records for this station are not official NWS values.
T = Trace of Precipitation, MM = Missing Value Source: NWS Daily Summary

Daily Weather History Graph

Daily Weather History Graph

Search for Another Location

Airport or City:

Trip Planner

Search our weather history database for the weather conditions in past years. The results will help you decide how hot, cold, wet, or windy it might be!

Date:

Astronomy

Sep. 05, 2013 Rise Set
Actual Time 6:22 AM CDT 7:27 PM CDT
Civil Twilight 5:52 AM CDT 7:57 PM CDT
Nautical Twilight 5:15 AM CDT 8:34 PM CDT
Astronomical Twilight 4:36 AM CDT 9:13 PM CDT
Moon 6:37 AM CDT (9/5) 7:13 PM CDT (9/5)
Length of Visible Light 14h 05m
Length of Day
13h 04m
New Moon, 0% of the Moon is Illuminated
Sep 5
New Moon
Sep 12
First Quarter
Sep 19
Full
Sep 26
Last Quarter
Oct 4
New

Hourly Weather History & Observations

Time (CDT) Temp. Dew Point Humidity Pressure Visibility Wind Dir Wind Speed Gust Speed Precip Events Conditions
12:15 AM 40.5 °F 40.3 °F 99% 30.22 in 10.0 mi Calm Calm - N/A   Clear
12:35 AM 40.1 °F 39.7 °F 99% 30.22 in 2.0 mi Calm Calm - N/A   Clear
12:55 AM 39.2 °F 39.2 °F 100% 30.23 in 3.0 mi Calm Calm - N/A   Clear
1:15 AM 39.2 °F 39.2 °F 100% 30.23 in 10.0 mi Calm Calm - N/A   Clear
1:35 AM 39.2 °F 39.0 °F 99% 30.23 in 10.0 mi Calm Calm - N/A   Clear
1:55 AM 38.3 °F 38.3 °F 100% 30.24 in 10.0 mi Calm Calm - N/A   Clear
2:15 AM 38.1 °F 38.1 °F 100% 30.24 in 10.0 mi Calm Calm - N/A   Clear
2:35 AM 37.8 °F 37.8 °F 100% 30.24 in 2.5 mi Calm Calm - N/A   Clear
2:55 AM 37.9 °F 37.9 °F 100% 30.25 in 4.0 mi Calm Calm - N/A   Clear
3:15 AM 36.9 °F 36.9 °F 100% 30.25 in 1.2 mi Calm Calm - N/A   Mist
3:35 AM 36.9 °F 36.9 °F 100% 30.25 in 0.8 mi Calm Calm - N/A   Mist
3:55 AM 36.5 °F 36.5 °F 100% 30.26 in 2.5 mi Calm Calm - N/A   Clear
4:15 AM 36.3 °F 36.3 °F 100% 30.26 in 10.0 mi Calm Calm - N/A   Clear
4:35 AM 35.8 °F 35.8 °F 100% 30.26 in 10.0 mi Calm Calm - N/A   Clear
4:55 AM 36.0 °F 36.0 °F 100% 30.27 in 1.2 mi Calm Calm - N/A   Scattered Clouds
5:15 AM 35.4 °F 35.4 °F 100% 30.28 in 3.0 mi Calm Calm - N/A   Mist
5:35 AM 36.1 °F 36.1 °F 100% 30.28 in 1.5 mi Calm Calm - N/A   Mist
5:55 AM 35.8 °F 35.8 °F 100% 30.29 in 10.0 mi Calm Calm - N/A   Clear
6:15 AM 35.1 °F 35.1 °F 100% 30.30 in 0.5 mi Calm Calm - N/A Fog Fog
6:35 AM 35.8 °F 35.8 °F 100% 30.31 in 1.0 mi Calm Calm - N/A   Mist
6:55 AM 35.8 °F 35.8 °F 100% 30.31 in 10.0 mi Calm Calm - N/A   Clear
7:15 AM 38.8 °F 38.8 °F 100% 30.31 in 7.0 mi Calm Calm - N/A   Clear
7:35 AM 42.6 °F 42.6 °F 100% 30.31 in 10.0 mi Calm Calm - N/A   Clear
7:55 AM 45.5 °F 45.5 °F 100% 30.31 in 10.0 mi Calm Calm - N/A   Clear
8:15 AM 49.1 °F 47.3 °F 93% 30.32 in 10.0 mi Calm Calm - N/A   Clear
8:35 AM 52.0 °F 46.6 °F 82% 30.32 in 10.0 mi Calm Calm - N/A   Clear
8:55 AM 53.6 °F 47.3 °F 79% 30.32 in 10.0 mi Calm Calm - N/A   Clear
9:15 AM 55.6 °F 47.7 °F 75% 30.32 in 10.0 mi SSW 3.5 mph - N/A   Clear
9:35 AM 57.2 °F 47.5 °F 70% 30.33 in 10.0 mi SSW 5.8 mph - N/A   Clear
9:55 AM 58.8 °F 47.1 °F 65% 30.33 in 10.0 mi SW 4.6 mph - N/A   Clear
10:15 AM 60.3 °F 45.7 °F 59% 30.32 in 10.0 mi South 4.6 mph - N/A   Clear
10:35 AM 61.2 °F 45.3 °F 56% 30.33 in 10.0 mi Calm Calm - N/A   Clear
10:55 AM 62.2 °F 44.1 °F 51% 30.32 in 10.0 mi SSW 4.6 mph - N/A   Clear
11:15 AM 63.1 °F 45.0 °F 51% 30.31 in 10.0 mi WSW 4.6 mph - N/A   Clear
11:35 AM 63.7 °F 42.6 °F 46% 30.31 in 10.0 mi South 4.6 mph - N/A   Clear
11:55 AM 65.1 °F 42.6 °F 44% 30.31 in 10.0 mi WSW 4.6 mph - N/A   Clear
12:15 PM 65.8 °F 43.3 °F 44% 30.31 in 10.0 mi SSE 3.5 mph - N/A   Clear
12:35 PM 66.7 °F 41.5 °F 40% 30.31 in 10.0 mi Calm Calm - N/A   Clear
12:55 PM 66.6 °F 41.2 °F 40% 30.30 in 10.0 mi West 4.6 mph - N/A   Clear
1:15 PM 68.0 °F 43.3 °F 41% 30.30 in 10.0 mi Calm Calm - N/A   Clear
1:35 PM 67.8 °F 42.1 °F 39% 30.29 in 10.0 mi Calm Calm - N/A   Clear
1:55 PM 68.9 °F 43.5 °F 40% 30.28 in 10.0 mi West 6.9 mph - N/A   Clear
2:15 PM 69.1 °F 43.9 °F 40% 30.28 in 10.0 mi SW 5.8 mph - N/A   Clear
2:35 PM 69.3 °F 44.4 °F 41% 30.27 in 10.0 mi Calm Calm - N/A   Clear
2:55 PM 70.2 °F 44.4 °F 40% 30.27 in 10.0 mi WNW 4.6 mph - N/A   Clear
3:15 PM 70.3 °F 44.6 °F 40% 30.26 in 10.0 mi SW 6.9 mph - N/A   Clear
3:35 PM 71.2 °F 44.4 °F 38% 30.26 in 10.0 mi Calm Calm - N/A   Clear
3:55 PM 70.9 °F 45.1 °F 40% 30.25 in 10.0 mi WSW 4.6 mph - N/A   Clear
4:15 PM 70.9 °F 43.9 °F 38% 30.25 in 10.0 mi WNW 4.6 mph - N/A   Clear
4:35 PM 71.2 °F 45.0 °F 39% 30.25 in 10.0 mi West 4.6 mph - N/A   Clear
4:55 PM 70.9 °F 45.0 °F 39% 30.25 in 10.0 mi Calm Calm - N/A   Clear
5:15 PM 70.7 °F 46.0 °F 41% 30.24 in 10.0 mi West 3.5 mph - N/A   Clear
5:35 PM 70.7 °F 44.4 °F 39% 30.24 in 10.0 mi Calm Calm - N/A   Clear
5:55 PM 70.0 °F 46.9 °F 44% 30.24 in 10.0 mi Calm Calm - N/A   Clear
6:15 PM 69.6 °F 47.5 °F 45% 30.24 in 10.0 mi Calm Calm - N/A   Clear
6:35 PM 68.2 °F 50.2 °F 53% 30.23 in 10.0 mi Calm Calm - N/A   Clear
6:55 PM 65.8 °F 51.4 °F 60% 30.23 in 10.0 mi Calm Calm - N/A   Clear
7:15 PM 58.6 °F 53.6 °F 83% 30.23 in 10.0 mi Calm Calm - N/A   Clear
7:35 PM 55.9 °F 52.5 °F 88% 30.22 in 10.0 mi Calm Calm - N/A   Clear
7:55 PM 54.5 °F 51.4 °F 89% 30.22 in 10.0 mi Calm Calm - N/A   Clear
8:15 PM 52.9 °F 50.9 °F 93% 30.22 in 10.0 mi Calm Calm - N/A   Clear
8:35 PM 51.8 °F 50.4 °F 95% 30.22 in 10.0 mi Calm Calm - N/A   Clear
8:55 PM 50.7 °F 49.3 °F 95% 30.22 in 10.0 mi Calm Calm - N/A   Clear
9:15 PM 50.0 °F 48.7 °F 95% 30.22 in 10.0 mi Calm Calm - N/A   Clear
9:35 PM 49.5 °F 48.2 °F 95% 30.22 in 10.0 mi Calm Calm - N/A   Clear
9:55 PM 49.6 °F 48.0 °F 94% 30.22 in 10.0 mi Calm Calm - N/A   Clear
10:15 PM 48.7 °F 46.8 °F 93% 30.21 in 10.0 mi Calm Calm - N/A   Clear
10:35 PM 49.1 °F 48.2 °F 97% 30.22 in 10.0 mi Calm Calm - N/A   Clear
10:55 PM 49.6 °F 48.6 °F 96% 30.22 in 10.0 mi SSW 3.5 mph - N/A   Clear
11:15 PM 54.1 °F 50.7 °F 88% 30.21 in 10.0 mi SSW 4.6 mph - N/A   Clear
11:35 PM 55.2 °F 50.9 °F 85% 30.21 in 10.0 mi SSW 5.8 mph - N/A   Clear
11:55 PM 55.4 °F 50.7 °F 84% 30.21 in 10.0 mi SSW 3.5 mph - N/A   Clear